GFSGL_sfc_temp_021.txt.gz
Temp
41 42 41 40 41 40 38 38 38 36 35 34 34 33 33 31 30 29 29 28 27 26 27 27 26 26 25 24 25 25 24 23 18 23 27 27 27 26 28 28 29 29 30
42 41 40 41 40 40 39 38 38 35 35 34 34 33 33 32 30 29 28 28 26 25 26 25 24 27 23 23 23 22 23 23 21 18 23 23 24 26 26 25 28 30 30
39 39 40 40 38 39 40 38 36 36 34 34 33 32 32 31 30 29 29 27 26 25 25 25 24 24 22 22 21 21 22 24 22 19 19 23 24 25 25 26 27 28 30
37 39 39 38 38 39 40 37 35 35 34 33 33 33 31 30 30 29 28 26 25 24 25 25 24 23 22 21 21 21 22 20 20 19 19 20 23 26 26 23 24 26 26
38 38 38 39 38 38 37 35 34 34 34 33 31 31 30 29 29 27 27 25 24 23 24 24 24 24 27 25 22 20 21 18 18 18 19 21 22 23 22 24 23 23 24
35 37 39 37 36 36 36 34 33 33 32 31 30 29 28 29 33 33 29 25 24 23 22 23 24 23 24 29 30 30 26 18 17 18 19 20 21 23 24 23 21 20 17
35 37 34 34 34 34 34 32 31 30 30 30 29 28 27 29 35 34 31 26 24 24 24 24 24 25 23 24 28 30 30 30 31 25 20 22 22 23 23 22 22 21 21
34 34 29 30 32 30 30 29 29 30 28 28 28 28 27 28 35 35 32 26 25 24 25 24 24 24 25 24 23 22 23 24 25 26 24 24 25 26 26 26 24 21 21
32 32 28 27 29 27 27 27 28 27 27 28 27 26 26 26 35 35 32 24 24 24 24 24 24 24 26 28 24 20 21 23 29 30 31 31 31 31 30 23 16 13 13
33 31 27 25 24 26 27 26 26 26 26 27 25 26 26 24 35 35 32 24 22 22 23 23 25 24 27 28 23 17 16 21 22 19 22 24 25 23 26 22 17 12 12
29 25 23 22 24 24 22 22 23 24 24 23 22 23 24 24 31 35 34 24 22 21 21 21 23 28 28 28 29 23 21 24 20 19 16 17 18 19 19 20 21 18 14
26 24 24 25 20 21 22 21 22 22 21 20 19 18 21 22 29 33 34 27 27 21 21 22 22 27 27 27 27 26 26 25 10 9 10 12 14 15 18 20 22 21 21
30 26 24 25 24 24 24 22 21 22 21 20 19 18 17 19 23 32 33 29 28 22 23 23 25 26 26 24 23 22 19 13 10 7 9 12 15 18 20 19 20 19 20
28 28 25 23 23 22 23 22 21 20 20 20 19 18 17 17 19 25 27 29 27 24 24 22 22 20 19 18 16 17 15 14 13 11 11 14 16 15 14 16 14 15 14
22 26 26 22 22 21 22 21 22 23 23 20 20 20 17 16 18 24 26 25 24 21 13 12 11 12 12 12 12 12 12 12 11 11 11 10 11 12 13 15 14 13 11
16 19 25 24 22 21 20 20 27 27 27 28 27 23 20 24 25 26 28 28 26 23 10 8 10 10 10 10 9 9 10 9 10 10 9 9 9 9 10 11 12 11 10
11 15 19 23 22 20 19 19 17 24 28 28 28 27 25 25 26 27 28 27 26 21 8 9 9 8 8 8 7 7 7 8 9 7 7 7 8 8 8 8 10 10 11
10 13 15 19 21 20 19 18 18 18 19 20 27 26 27 26 26 27 28 26 21 12 6 6 5 4 4 5 5 4 4 4 4 4 4 4 4 4 5 7 8 9 10
9 11 15 20 22 19 19 17 17 17 17 19 21 25 25 27 27 27 27 20 9 4 3 3 3 1 1 1 1 -0 -3 -2 -1 -2 -1 1 3 4 5 7 8 10 9
10 11 13 15 18 17 16 15 15 16 17 18 19 20 21 23 22 22 12 10 7 4 1 1 -1 -2 -4 -4 -6 -10 -9 -6 -5 -4 -2 1 2 5 6 6 9 8 7
9 12 14 18 15 16 14 14 15 16 17 17 19 20 24 22 14 7 4 5 4 2 -1 -1 -4 -6 -8 -9 -13 -14 -11 -6 -5 -6 -2 0 2 2 5 9 9 8 7
13 14 15 16 13 13 14 15 16 17 16 16 16 20 24 10 6 4 2 0 -2 -3 -2 -4 -7 -8 -8 -11 -12 -15 -13 -10 -9 -8 -2 0 1 4 6 9 8 7 6
15 15 13 13 13 14 14 15 14 15 13 12 15 9 6 5 2 1 -1 -3 -5 -6 -9 -11 -10 -11 -17 -16 -15 -14 -14 -10 -9 -8 -4 -2 0 3 8 7 6 5 5
10 11 11 11 11 11 10 10 9 7 10 12 6 5 3 1 -0 -2 -3 -5 -7 -9 -10 -12 -14 -15 -15 -14 -15 -15 -13 -11 -9 -8 -4 -1 2 7 7 5 5 5 5
7 7 7 7 7 7 6 6 7 8 6 3 2 0 -1 -1 -2 -4 -5 -6 -7 -9 -10 -11 -12 -15 -15 -14 -13 -13 -12 -6 -6 -4 -0 6 7 5 4 3 3 4 4
4 4 4 5 4 4 4 4 4 4 2 1 -0 -1 -1 -2 -3 -5 -6 -7 -7 -7 -8 -11 -13 -13 -12 -12 -12 -8 -5 3 4 8 13 11 4 5 4 2 2 3 3

GFSGL_sfc_temp_024.txt.gz
Temp
37 38 39 39 38 36 36 38 38 37 36 34 36 36 34 34 33 32 32 30 30 29 29 29 28 28 26 25 26 25 24 24 18 22 26 26 26 26 28 28 29 29 29
39 37 36 37 35 36 38 38 38 37 36 36 36 35 34 34 34 33 31 31 30 28 28 28 27 28 25 25 24 23 23 24 21 18 23 23 23 25 26 25 28 30 30
37 36 35 36 35 37 39 38 38 37 35 36 35 34 34 34 33 34 33 31 31 30 28 28 27 26 24 23 23 22 22 25 22 18 19 23 23 24 24 25 25 26 30
39 36 36 35 37 39 39 37 35 36 35 35 35 35 35 34 33 33 33 31 30 29 28 28 26 26 25 23 23 22 22 20 20 19 19 20 21 25 24 22 22 24 26
36 37 37 38 38 38 36 35 34 35 36 36 35 34 34 33 33 32 32 30 29 27 27 27 26 26 29 27 24 21 21 19 19 18 18 20 21 23 22 23 22 22 23
35 35 36 36 35 34 34 34 33 33 35 34 33 33 32 33 37 36 34 30 29 27 24 25 25 24 27 31 31 28 25 18 14 15 17 19 21 22 23 22 21 20 18
34 35 34 34 33 33 32 30 32 32 33 32 33 32 31 32 37 37 36 31 29 28 26 25 24 26 24 27 31 30 30 30 26 21 15 20 21 23 23 22 22 22 21
32 33 33 33 32 32 29 30 31 32 31 31 31 31 32 32 37 38 36 30 29 28 27 26 26 25 24 25 25 26 27 26 27 27 24 23 23 25 25 25 23 20 20
32 32 31 30 30 31 29 29 30 30 29 30 31 30 29 30 36 37 35 27 27 26 27 26 26 25 27 29 24 21 22 23 29 30 30 31 32 31 30 19 11 8 11
30 31 32 29 28 27 29 27 28 28 29 29 28 28 28 28 35 37 35 25 23 24 25 25 27 24 28 30 23 20 19 21 22 21 23 25 26 23 26 23 16 5 10
28 26 27 30 30 27 25 22 22 26 26 25 25 25 26 26 29 37 36 26 24 22 22 22 24 28 29 30 29 22 21 24 23 19 17 17 19 19 20 21 21 18 13
25 23 24 29 30 28 24 22 24 24 22 18 20 20 23 24 29 36 37 29 29 22 22 23 23 28 29 30 30 28 28 27 14 12 12 14 15 16 18 20 21 21 21
21 21 22 22 24 28 25 24 22 22 21 19 19 19 18 21 25 35 37 31 30 24 24 24 26 29 29 30 30 29 22 17 14 9 10 12 16 18 19 18 19 18 18
14 15 17 18 21 26 25 25 23 22 21 21 20 20 19 20 22 27 31 30 28 25 26 24 26 27 28 21 22 23 18 17 15 12 13 15 16 15 13 15 13 14 12
11 12 13 15 16 20 25 24 24 25 25 23 22 22 19 18 21 26 29 28 25 23 22 22 22 19 17 15 14 14 15 14 13 13 12 12 12 13 12 14 13 11 8
7 8 10 12 13 16 20 24 28 29 29 30 30 25 23 25 26 28 30 31 29 27 19 17 15 14 13 12 12 12 12 12 13 12 11 10 9 10 10 11 11 8 7
4 5 7 9 11 13 17 20 20 23 30 30 30 30 28 26 27 28 30 31 29 26 17 14 13 12 12 12 12 11 10 11 11 10 9 9 9 8 7 7 8 8 7
3 5 5 6 8 11 14 17 20 20 18 22 29 29 30 28 28 28 29 30 26 22 15 13 12 11 11 10 9 9 8 8 7 7 6 5 4 4 3 4 6 5 6
3 4 6 8 9 11 14 17 19 19 18 20 21 26 27 29 28 28 29 25 23 12 12 12 11 9 8 7 7 5 4 3 2 2 0 1 1 1 1 3 5 6 6
4 5 6 6 7 9 11 15 17 16 17 19 19 21 23 23 22 23 25 23 14 12 10 6 6 6 4 4 2 1 -1 -2 -1 -2 -2 -3 -0 1 2 3 4 4 7
3 4 5 6 8 10 12 15 15 15 16 17 19 21 24 21 21 23 19 12 9 7 6 5 3 2 0 -1 -2 -4 -3 -1 -3 -4 -5 -4 -1 -2 1 3 4 5 8
5 7 8 9 11 12 15 15 15 14 15 17 18 20 26 20 12 9 8 6 5 4 4 2 0 -2 -2 -2 -4 -5 -5 -6 -10 -11 -7 -4 -1 -1 0 2 4 7 6
8 9 13 12 13 14 14 14 14 14 15 16 16 13 8 6 5 3 1 0 -0 -1 -2 -1 -3 -5 -5 -8 -8 -7 -6 -9 -9 -11 -10 -6 -4 -3 -1 2 5 5 4
7 8 9 11 11 10 10 8 9 12 12 7 5 5 4 4 2 0 -1 -2 -3 -5 -6 -5 -5 -5 -8 -11 -12 -12 -12 -12 -12 -13 -11 -7 -5 -4 0 5 5 3 2
5 5 6 6 7 7 7 8 8 5 5 4 3 2 2 1 -0 -2 -3 -3 -5 -6 -7 -7 -7 -8 -9 -10 -11 -11 -10 -3 -6 -7 -7 -5 -6 -2 4 4 2 2 -1
3 3 3 4 4 5 5 4 3 3 2 2 2 2 1 -0 -1 -3 -3 -4 -4 -5 -6 -7 -8 -9 -10 -10 -9 -6 -5 -0 -2 -2 -2 2 7 7 4 1 -2 -2 -2

GFSGL_sfc_temp_030.txt.gz
Temp
45 45 45 46 45 46 46 47 47 48 49 48 48 47 47 47 47 46 47 47 45 46 45 45 45 46 45 46 45 45 44 45 42 39 44 42 40 40 39 39 39 40 40
44 43 44 45 44 44 44 45 45 45 46 46 47 46 46 46 45 44 44 46 44 44 44 43 44 42 43 43 42 39 39 40 41 34 35 36 38 39 40 37 36 37 38
42 42 42 41 41 41 42 42 43 44 44 44 42 44 43 43 43 43 44 44 44 44 44 42 43 40 39 40 40 39 39 36 39 36 32 34 34 35 33 35 35 35 36
41 40 39 39 39 40 40 40 40 41 41 42 43 42 43 43 42 42 40 42 44 42 43 42 42 39 39 39 37 36 36 34 34 34 33 31 32 33 33 32 31 33 34
38 38 38 38 39 38 38 37 38 38 38 38 39 40 39 40 41 41 39 39 40 40 40 40 40 41 39 40 37 36 35 34 32 32 32 31 30 27 27 32 31 33 33
35 35 36 36 36 35 35 34 35 36 37 37 37 37 36 38 40 40 40 38 38 38 38 39 39 37 36 39 39 39 37 32 30 31 31 29 30 30 31 30 30 28 29
33 32 32 33 32 32 32 32 33 34 35 36 36 36 35 38 40 40 39 38 37 38 38 38 37 37 35 37 38 38 37 38 37 34 31 31 30 31 32 30 29 28 29
31 30 31 31 30 31 30 30 31 34 34 34 35 35 35 34 36 36 38 38 37 37 39 38 37 36 35 35 34 34 33 34 35 34 34 33 35 34 33 32 30 29 30
31 31 31 30 27 27 24 27 30 31 32 31 33 33 33 34 37 36 34 32 33 35 37 38 38 36 36 36 33 32 30 30 35 34 34 35 35 35 33 30 25 24 23
30 30 30 29 25 23 25 24 26 27 27 29 30 32 32 32 35 37 35 34 32 34 35 35 34 35 36 35 33 31 27 28 29 28 29 32 33 32 32 30 29 24 24
29 28 27 26 24 23 22 23 22 22 23 24 27 30 31 32 33 35 35 32 33 33 33 32 33 35 36 34 35 30 29 30 30 28 28 28 29 29 29 29 29 27 23
25 23 22 21 21 21 18 18 18 19 19 20 23 27 31 32 32 33 34 34 34 32 32 32 31 32 33 32 32 31 32 32 29 28 26 25 24 24 25 26 27 27 28
17 15 15 16 16 16 14 14 16 17 17 19 22 25 28 32 32 32 33 33 33 32 33 32 30 30 31 31 32 32 29 27 26 24 24 25 25 25 24 23 24 25 25
10 11 11 11 11 12 13 14 13 14 15 17 19 22 26 29 29 30 29 29 30 31 32 29 29 29 30 29 29 29 28 26 26 24 24 24 22 20 20 21 19 19 17
6 7 7 8 7 8 10 11 12 14 16 15 16 19 21 24 28 31 29 27 28 30 28 27 26 25 26 27 27 26 26 24 24 23 21 18 18 18 18 19 19 18 15
3 4 5 5 6 7 7 8 13 15 18 20 21 21 22 26 29 32 32 31 31 31 24 23 24 24 25 26 26 25 24 22 22 20 19 18 17 17 17 17 18 16 15
2 3 4 4 5 5 5 5 4 10 15 17 19 21 24 25 28 31 32 31 31 31 23 23 24 25 25 25 25 21 20 21 20 19 17 17 16 17 16 16 16 16 14
3 3 4 5 5 4 4 5 5 4 4 8 15 18 21 25 29 31 32 32 27 29 25 24 24 25 26 24 20 19 18 17 17 16 15 15 15 15 14 14 14 13 13
4 4 5 6 6 6 6 5 6 6 6 8 10 14 18 24 28 30 32 28 26 27 25 24 25 23 21 20 19 17 16 16 15 14 14 13 13 13 12 13 13 11 11
5 6 7 6 6 6 6 5 6 6 7 7 9 12 15 22 23 25 29 28 27 28 25 22 20 19 19 18 16 15 14 13 13 12 11 11 11 12 11 11 11 11 11
5 7 7 8 8 7 7 7 7 7 7 9 12 15 23 22 22 24 27 27 26 22 21 19 17 15 15 14 13 12 12 11 10 9 9 9 9 8 11 11 11 9 9
6 6 6 7 9 10 12 12 11 9 9 11 15 20 22 19 20 17 16 16 17 17 18 16 14 13 12 12 11 10 9 8 8 8 8 8 8 9 8 9 8 9 10
6 6 6 8 9 10 11 12 13 14 14 14 13 12 12 10 10 10 9 10 11 11 11 11 10 9 10 11 12 11 9 8 8 9 8 7 7 7 7 8 8 7 8
4 4 5 6 6 7 8 8 8 8 7 7 7 7 6 6 5 5 6 8 8 9 9 9 8 7 7 8 9 10 9 8 8 8 8 7 6 6 7 6 6 7 8
3 3 3 3 3 4 5 5 6 6 6 5 5 4 4 4 4 4 4 5 5 5 5 6 6 5 4 4 4 4 6 4 4 3 2 3 4 4 4 4 5 7 8
1 1 2 2 2 2 2 3 3 4 4 3 3 3 3 3 4 4 4 4 3 3 3 3 3 3 3 3 2 1 1 4 1 -0 1 1 2 3 4 4 4 7 8

GFSGL_sfc_temp_033.txt.gz
Temp
45 45 45 45 46 46 45 45 45 45 46 46 46 46 47 46 47 46 46 46 45 45 46 46 46 47 47 46 46 46 45 45 42 38 44 42 41 40 37 38 38 38 38
45 44 44 44 44 44 43 43 42 42 43 43 44 43 44 45 45 45 44 45 44 44 44 44 45 47 45 45 45 43 43 44 43 33 37 37 38 39 38 35 35 37 36
42 43 43 42 41 41 41 41 41 41 41 41 41 41 41 42 43 43 44 43 44 44 44 43 43 44 43 44 44 43 43 38 42 36 33 35 35 37 36 35 35 34 35
41 41 39 39 39 40 40 39 38 39 39 39 39 39 39 40 40 41 40 41 42 43 44 44 44 43 43 42 42 41 40 38 39 36 33 32 33 34 34 31 29 32 32
39 38 37 38 38 37 36 36 35 36 36 37 37 38 39 38 38 38 39 39 39 40 41 42 42 43 42 43 41 39 38 37 36 35 35 32 31 29 29 31 31 30 31
36 35 36 35 34 34 34 33 33 33 34 36 36 36 37 37 39 40 39 38 38 38 38 40 41 39 39 42 43 43 41 36 35 35 34 32 32 32 31 29 30 29 26
34 34 33 33 32 32 33 32 31 31 32 33 34 35 35 36 39 39 38 36 33 35 37 37 38 39 37 39 40 42 42 42 43 38 35 36 33 33 31 30 30 30 30
32 32 32 32 31 32 31 31 30 31 30 30 32 33 32 34 37 38 38 36 34 34 34 36 37 38 38 36 36 36 37 37 40 41 40 40 39 35 35 34 31 31 30
31 31 31 31 29 29 27 28 28 27 27 26 28 28 27 29 35 37 37 35 34 33 34 35 33 34 39 40 34 33 34 36 39 41 41 42 41 38 35 31 27 25 24
30 30 30 29 27 25 26 25 26 24 24 26 24 25 26 26 31 35 36 34 33 33 34 34 34 32 34 39 35 33 31 33 32 33 34 37 38 36 36 33 30 25 25
27 26 25 25 23 23 23 23 22 21 21 19 20 21 22 25 27 33 35 33 32 33 33 33 34 36 36 35 35 30 31 32 32 31 30 31 30 31 31 31 31 30 26
21 19 17 17 17 18 16 16 16 16 14 14 15 17 21 24 28 32 34 35 35 32 32 33 34 36 35 35 33 34 35 36 29 28 26 26 26 26 27 29 30 30 30
12 9 9 11 11 11 10 10 11 12 11 12 13 14 17 22 25 30 33 35 36 33 33 34 35 36 34 35 34 33 32 30 27 25 24 25 28 28 28 26 27 27 26
6 6 7 6 7 8 9 9 8 8 8 9 10 11 13 17 20 24 28 30 31 31 32 33 33 34 33 32 30 32 30 30 28 26 26 26 26 24 22 22 20 21 19
5 5 5 6 6 7 8 8 8 9 10 7 8 10 10 11 16 21 24 23 26 29 28 29 29 29 27 27 28 28 29 29 26 27 26 23 21 21 19 20 19 18 16
3 4 5 5 6 6 6 6 13 14 16 17 18 16 15 19 21 23 24 26 28 30 28 26 26 26 25 26 26 26 27 25 25 24 22 20 19 18 17 18 18 17 16
2 3 3 4 4 4 5 5 3 8 14 15 17 17 18 19 21 22 23 25 27 29 26 27 25 25 25 25 26 26 24 23 23 21 20 19 18 18 17 16 16 16 15
2 3 3 4 5 5 5 5 6 4 3 5 12 14 16 18 20 21 23 25 22 26 26 27 25 25 25 25 26 25 23 21 21 20 19 18 18 17 16 15 15 14 14
3 3 3 5 6 7 7 7 7 6 5 6 7 11 13 16 19 21 24 21 23 26 27 27 25 25 26 24 22 21 20 20 19 18 17 17 16 16 15 15 14 14 13
4 4 5 5 7 7 8 8 8 7 7 7 7 8 11 12 13 17 22 24 24 26 27 26 25 25 22 21 19 18 18 17 16 15 15 15 15 15 13 13 12 11 11
4 5 6 6 6 7 8 9 11 12 10 9 9 11 18 17 19 20 22 23 27 25 23 21 21 20 20 18 17 16 15 15 14 13 13 12 13 11 12 13 12 12 11
4 4 5 5 7 8 8 9 10 10 12 11 12 14 17 13 13 14 15 17 19 20 20 19 18 17 16 16 15 14 12 11 11 11 11 10 11 11 11 11 10 10 9
4 3 4 5 6 6 7 8 8 8 8 8 8 7 7 7 7 8 9 10 11 11 13 14 13 12 13 14 14 13 11 10 11 11 10 9 9 9 10 8 9 9 9
3 2 3 4 4 5 5 5 6 6 6 5 5 5 5 5 5 5 6 7 8 9 9 10 10 10 11 11 12 12 11 11 11 11 10 9 8 8 8 8 8 8 9
1 1 1 2 2 3 3 4 4 4 4 4 4 4 4 4 4 4 5 5 6 5 5 6 7 6 6 6 7 8 10 9 8 9 9 9 7 7 7 6 6 6 6
1 1 0 1 1 2 2 2 3 4 3 4 4 4 4 4 4 4 4 4 4 4 4 4 4 4 4 3 4 5 6 6 4 4 4 5 4 4 3 1 1 1 1